Weather History for Newark, NJ

Change the Weather History Date:

Monday, December 9, 2013

  Actual Average Record
Temperature  
Mean Temperature 34 °F 38 °F  
Max Temperature 38 °F 46 °F 68 °F (1966)
Min Temperature 30 °F 32 °F 12 °F (1934)
Degree Days  
Heating Degree Days 31 26  
Month to date heating degree days 203 225  
Since 1 July heating degree days 1073 1093  
Cooling Degree Days 0 0  
Month to date cooling degree days 0 0  
Year to date cooling degree days 1337 1192  
Moisture  
Dew Point 34 °F    
Average Humidity 93    
Maximum Humidity 100    
Minimum Humidity 85    
Precipitation  
Precipitation 0.34 in 0.13 in 1.96 in (2009)
Month to date precipitation 1.40 1.18  
Year to date precipitation 39.72 43.62  
Snow  
Snow 0.00 in 0.10 in 6.00 in (2005)
Month to date snowfall 0.8 1.0  
Since 1 July snowfall 0.8 1.4  
Snow Depth 0.00 in    
Sea Level Pressure  
Sea Level Pressure 30.10 in    
Wind  
Wind Speed 10 mph (NNW)    
Max Wind Speed 16 mph    
Max Gust Speed 21 mph    
Visibility 4 miles    
Events Rain    
T = Trace of Precipitation, MM = Missing Value Source: NWS Daily Summary

Daily Weather History Graph

Daily Weather History Graph

Search for Another Location

Airport:

Trip Planner

Search our weather history database for the weather conditions in past years. The results will help you decide how hot, cold, wet, or windy it might be!

Date:

Astronomy

Dec. 09, 2013 Rise Set
Actual Time 7:08 AM EST 4:29 PM EST
Civil Twilight 6:38 AM EST 5:00 PM EST
Nautical Twilight 6:03 AM EST 5:34 PM EST
Astronomical Twilight 5:30 AM EST 6:07 PM EST
Moon 11:58 AM EST (12/9) No Moon Set
Length of Visible Light 10h 21m
Length of Day
9h 20m
Waxing Crescent, 51% of the Moon is Illuminated
Dec 9
Waxing Crescent
Dec 17
Full
Dec 25
Last Quarter
Jan 1
New
Jan 7
First Quarter

Hourly Weather History & Observations

Time (EST) Temp. Windchill Dew Point Humidity Pressure Visibility Wind Dir Wind Speed Gust Speed Precip Events Conditions
12:51 AM 30.9 °F 21.2 °F 30.0 °F 96% 30.34 in 2.0 mi NNE 12.7 mph - 0.03 in Rain Light Freezing Rain
1:51 AM 32.0 °F 23.0 °F 30.9 °F 96% 30.32 in 2.0 mi NNE 11.5 mph - 0.04 in Rain Light Freezing Rain
2:51 AM 32.0 °F 23.0 °F 30.9 °F 96% 30.29 in 2.0 mi NNE 11.5 mph - 0.02 in Rain Light Freezing Rain
3:43 AM 33.8 °F 27.7 °F 32.0 °F 93% 30.25 in 4.0 mi NNE 6.9 mph - 0.04 in Rain Light Rain
3:51 AM 33.1 °F 26.1 °F 33.1 °F 100% 30.24 in 3.0 mi NNE 8.1 mph - 0.04 in Rain Light Rain
4:51 AM 34.0 °F 25.0 °F 33.1 °F 96% 30.21 in 3.0 mi NNE 12.7 mph - 0.02 in Rain Light Rain
5:32 AM 33.8 °F 23.9 °F 33.8 °F 100% 30.19 in 2.5 mi NE 15.0 mph - 0.04 in Rain Light Rain
5:51 AM 34.0 °F 24.6 °F 33.1 °F 96% 30.19 in 3.0 mi NE 13.8 mph - 0.07 in Rain Light Rain
6:25 AM 33.8 °F 24.8 °F 32.0 °F 93% 30.18 in 3.0 mi NNE 12.7 mph - 0.03 in Rain Light Rain
6:51 AM 33.1 °F 23.4 °F 32.0 °F 96% 30.19 in 3.0 mi North 13.8 mph - 0.05 in Rain Light Rain
7:21 AM 32.0 °F 22.5 °F 32.0 °F 100% 30.18 in 2.0 mi NNE 12.7 mph - 0.04 in Rain Light Rain
7:24 AM 32.0 °F 22.5 °F 32.0 °F 100% 30.18 in 2.0 mi NNE 12.7 mph - 0.04 in Rain Light Freezing Rain
7:38 AM 32.0 °F 22.5 °F 32.0 °F 100% 30.15 in 2.0 mi NNE 12.7 mph - 0.05 in   Light Freezing Drizzle
7:48 AM 33.8 °F 24.8 °F 32.0 °F 93% 30.15 in 2.0 mi NNE 12.7 mph - 0.05 in   Light Drizzle
7:51 AM 33.1 °F 23.9 °F 32.0 °F 96% 30.16 in 2.0 mi North 12.7 mph - 0.05 in   Light Drizzle
8:47 AM 33.8 °F 25.3 °F 32.0 °F 93% 30.13 in 3.0 mi NNE 11.5 mph - 0.03 in Rain Light Rain
8:51 AM 33.1 °F 24.4 °F 32.0 °F 96% 30.13 in 3.0 mi NNE 11.5 mph - 0.03 in   Overcast
9:51 AM 34.0 °F 25.0 °F 33.1 °F 96% 30.09 in 3.0 mi NNE 12.7 mph - N/A   Overcast
10:17 AM 33.8 °F 24.8 °F 33.8 °F 100% 30.10 in 2.0 mi North 12.7 mph - 0.00 in   Light Drizzle
10:51 AM 34.0 °F 24.6 °F 34.0 °F 100% 30.08 in 2.0 mi North 13.8 mph - 0.00 in   Light Drizzle
10:53 AM 33.8 °F 25.3 °F 33.8 °F 100% 30.09 in 1.5 mi North 11.5 mph - 0.00 in   Light Drizzle
11:51 AM 35.1 °F 26.9 °F 35.1 °F 100% 30.01 in 1.5 mi NNE 11.5 mph - 0.00 in   Light Drizzle
12:40 PM 35.6 °F 29.9 °F 35.6 °F 100% 29.99 in 3.0 mi NNW 6.9 mph - 0.00 in   Overcast
12:51 PM 37.0 °F 32.4 °F 36.0 °F 96% 29.99 in 3.0 mi North 5.8 mph - 0.00 in   Overcast
1:35 PM 37.4 °F 32.1 °F 35.6 °F 93% 29.99 in 1.0 mi WNW 6.9 mph - 0.00 in   Light Drizzle
1:51 PM 37.0 °F 30.4 °F 35.1 °F 93% 29.99 in 1.0 mi WNW 9.2 mph - 0.00 in   Light Drizzle
2:00 PM 37.4 °F 29.8 °F 35.6 °F 93% 30.00 in 1.0 mi West 11.5 mph - 0.00 in   Overcast
2:51 PM 37.0 °F - 37.0 °F 100% 29.98 in 1.0 mi Calm Calm - 0.00 in   Overcast
2:55 PM 37.4 °F 34.9 °F 37.4 °F 100% 29.98 in 6.0 mi West 3.5 mph - N/A   Overcast
3:51 PM 37.9 °F 32.1 °F 36.0 °F 93% 30.00 in 6.0 mi WSW 8.1 mph - N/A   Overcast
4:51 PM 37.9 °F 31.5 °F 36.0 °F 93% 30.00 in 6.0 mi WSW 9.2 mph - N/A   Overcast
5:51 PM 37.9 °F 32.1 °F 36.0 °F 93% 30.01 in 10.0 mi WSW 8.1 mph - N/A   Overcast
6:51 PM 37.9 °F 31.5 °F 35.1 °F 89% 30.01 in 9.0 mi WSW 9.2 mph - N/A   Overcast
7:30 PM 37.4 °F 30.3 °F 35.6 °F 93% 30.03 in 9.0 mi WSW 10.4 mph - N/A   Overcast
7:51 PM 37.0 °F 29.8 °F 34.0 °F 89% 30.03 in 9.0 mi SW 10.4 mph - N/A   Overcast
8:51 PM 37.0 °F 30.4 °F 34.0 °F 89% 30.04 in 9.0 mi WSW 9.2 mph - N/A   Mostly Cloudy
9:07 PM 35.6 °F 28.0 °F 33.8 °F 93% 30.03 in 9.0 mi SW 10.4 mph - N/A   Scattered Clouds
9:51 PM 36.0 °F 28.0 °F 34.0 °F 93% 30.03 in 8.0 mi West 11.5 mph 19.6 mph N/A   Scattered Clouds
10:51 PM 35.1 °F 29.3 °F 33.1 °F 92% 30.03 in 10.0 mi SW 6.9 mph - N/A   Mostly Cloudy
11:51 PM 34.0 °F 27.2 °F 32.0 °F 92% 30.02 in 10.0 mi SSW 8.1 mph - N/A   Mostly Cloudy